Location: Dillon
(41.1766°N, 107.0923°W)
Time: 16:47:53
(UTC+00:00)

FALCONSAT 3 - Pass Details

Date: 03 July 2022
Orbit: 394 x 399 km, 35.4° (Epoch: 09 August)

Event Time Altitude Azimuth Distance (km) Brightness Sun altitude
Rises 03:11:49 0° 233° (SW) 2,334 ? -5.0°
Reaches altitude 10° 03:14:15 10° 216° (SW) 1,471 ? -5.4°
Maximum altitude 03:16:50 21° 166° (SSE) 984 ? -5.8°
Drops below altitude 10° 03:19:25 10° 115° (ESE) 1,467 ? -6.2°
Enters shadow 03:20:08 - 108° (ESE) 1,699 ? -6.3°
